MPEC 2008-F51 : 2008 FG5

The following Minor Planet Electronic Circular may be linked-to from your own Web pages, but must not otherwise be redistributed electronically.


Read MPEC 2008-F50 Read MPEC 2008-F52


M.P.E.C. 2008-F51                                Issued 2008 Mar. 29, 02:57 UT

     The Minor Planet Electronic Circulars contain information on unusual
         minor planets and routine data on comets.  They are published
   on behalf of Commission 20 of the International Astronomical Union by the
          Minor Planet Center, Smithsonian Astrophysical Observatory,
                          Cambridge, MA 02138, U.S.A.

             Prepared using the Tamkin Foundation Computer Network

                              MPC@CFA.HARVARD.EDU
          URL http://www.cfa.harvard.edu/iau/mpc.html  ISSN 1523-6714

                                   2008 FG5

Observations:
     K08F05G* C2008 03 28.35782 13 55 23.70 -07 48 09.7          19.4 V EF051G96
     K08F05G  C2008 03 28.36308 13 55 24.88 -07 48 06.6          19.2 V EF051G96
     K08F05G  C2008 03 28.36830 13 55 26.07 -07 48 03.7          19.1 V EF051G96
     K08F05G  C2008 03 28.37360 13 55 27.30 -07 48 00.4          19.1 V EF051G96
     K08F05G  C2008 03 28.40585 13 55 34.64 -07 47 41.2          19.0 R EF051854
     K08F05G  C2008 03 28.40681 13 55 34.85 -07 47 39.8          19.0 R EF051854
     K08F05G  C2008 03 28.40776 13 55 35.09 -07 47 39.1          19.0 R EF051854
     K08F05G  C2008 03 28.40878 13 55 35.32 -07 47 38.9          18.5 V EF051G96
     K08F05G  C2008 03 28.41493 13 55 36.69 -07 47 35.9          18.6 V EF051G96
     K08F05G  C2008 03 28.42123 13 55 38.13 -07 47 32.2          18.7 V EF051G96
     K08F05G  C2008 03 28.42750 13 55 39.57 -07 47 28.4          18.6 V EF051G96
     K08F05G  C2008 03 28.55553 13 56 10.84 -07 45 28.6          19.5 V EF051F85
     K08F05G  C2008 03 28.57087 13 56 14.43 -07 45 19.5          17.9 V EF051F85
     K08F05G  C2008 03 28.60027 13 56 21.35 -07 45 00.1          19.5 V EF051F85
     K08F05G  C2008 03 29.03589 13 58 17.66 -07 41 21.6          18.8 R EF051147
     K08F05G  C2008 03 29.03761 13 58 18.08 -07 41 20.6          19.0 R EF051147
     K08F05G  C2008 03 29.03933 13 58 18.53 -07 41 19.5          18.7 R EF051147

Observer details:
147 Osservatorio Astronomico di Suno.  Observers P. Concari, D. Crespi,
    S. Foglia, G. Galli.  Measurers S. Foglia, G. Galli.  0.40-m f/4 reflector
    + CCD.
854 Sabino Canyon Observatory, Tucson.  Observer J. E. McGaha.  0.36-m f/10.0
    Schmidt-Cassegrain + CCD.
F85 Tiki Observatory, Punaauia.  Observer N. Teamo.  0.41-m f/8.0
    Ritchey-Chretien + CCD.
G96 Mt. Lemmon Survey.  Observer R. A. Kowalski.  Measurers E. C. Beshore,
    A. Boattini, G. J. Garradd, A. R. Gibbs, A. D. Grauer, R. E. Hill,
    R. A. Kowalski, S. M. Larson, R. H. McNaught.  1.5-m reflector + CCD.

Orbital elements:
2008 FG5                                            PHA, Earth MOID = 0.0092 AU
Epoch 2008 May 14.0 TT = JDT 2454600.5                  MPC
M 356.73981              (2000.0)            P               Q
n   0.28552895     Peri.  107.20748     +0.28304822     +0.95910548
a   2.2840343      Node   179.23391     -0.89670008     +0.26486143
e   0.7279967      Incl.    2.66746     -0.34031261     +0.09982539
P   3.45           H   21.7           G   0.15           U   9
Residuals in seconds of arc
080328 G96  0.7-  0.6-    080328 854  0.7+  0.9+    080328 F85  0.3-  0.4-
080328 G96  0.8-  0.5-    080328 G96  0.7+  0.6+    080328 F85  0.2-  0.5+
080328 G96  0.6-  0.6-    080328 G96  0.2+  0.0     080329 147  0.1+  0.0
080328 G96  0.1-  0.4-    080328 G96  0.3+  0.1-    080329 147  0.1-  0.1-
080328 854  0.5+  0.1-    080328 G96  0.4+  0.0     080329 147  0.1+  0.1-
080328 854  0.3+  0.8+    080328 F85  0.6-  0.1+

Ephemeris:
2008 FG5                 a,e,i = 2.28, 0.73, 3                   q = 0.6213
Date    TT    R. A. (2000) Decl.     Delta      r     Elong.  Phase     V
2008 03 25    13 44.33   -08 11.7    0.210    1.194   157.3    18.8    19.7
2008 03 27    13 50.35   -07 59.1    0.183    1.170   157.9    18.7    19.3
2008 03 29    13 58.13   -07 41.0    0.157    1.146   158.0    19.0    18.9
2008 03 31    14 08.69   -07 14.2    0.132    1.122   157.4    20.0    18.5
2008 04 02    14 23.94   -06 32.4    0.107    1.098   155.6    22.1    18.1
2008 04 04    14 47.87   -05 21.8    0.0825   1.073   151.5    26.4    17.6
2008 04 06    15 29.81   -03 08.4    0.0601   1.049   142.7    35.3    17.1
2008 04 08    16 52.44   +01 30.5    0.0421   1.025   123.3    54.7    16.9
2008 04 10    19 20.51   +08 54.6    0.0355   1.001    87.5    90.5    17.7
2008 04 12    21 39.63   +12 32.2    0.0455   0.977    54.8   123.0    20.0
2008 04 14    22 53.59   +12 41.5    0.0649   0.953    38.5   139.1    22.4

Sonia Keys                   (C) Copyright 2008 MPC           M.P.E.C. 2008-F51

Read MPEC 2008-F50 Read MPEC 2008-F52


Our Web policy. Index to the CBAT/MPC/ICQ pages.

MPC

Valid HTML 4.01!